Weather History for PAFA - September, 2013

Change the Weather History Date:

Friday, September 13, 2013

  Actual Average Record
Temperature  
Mean Temperature 47 °F 46 °F  
Max Temperature 53 °F 57 °F 74 °F (1965)
Min Temperature 40 °F 36 °F 20 °F (1927)
Degree Days  
Heating Degree Days 18 19  
Month to date heating degree days 183 209  
Since 1 July heating degree days 442 598  
Cooling Degree Days 0 0  
Month to date cooling degree days 0 0  
Year to date cooling degree days 226 61  
Moisture  
Dew Point 43 °F    
Average Humidity 86    
Maximum Humidity 93    
Minimum Humidity 76    
Precipitation  
Precipitation 0.03 in 0.04 in 1.59 in (1925)
Month to date precipitation 1.53 0.57  
Year to date precipitation 7.33 8.14  
Snow  
Snow 0.00 in 0.10 in 7.80 in (1992)
Month to date snowfall 0.0 0.4  
Since 1 July snowfall 0.0 0.4  
Since 1 September snowfall 0.0 0.4  
Snow Depth 0.00 in    
Sea Level Pressure  
Sea Level Pressure 29.91 in    
Wind  
Wind Speed 2 mph (North)    
Max Wind Speed 5 mph    
Max Gust Speed -    
Visibility 10 miles    
Events Rain    
T = Trace of Precipitation, MM = Missing Value Source: NWS Daily Summary

Daily Weather History Graph

Daily Weather History Graph

Search for Another Location

Airport or City:

Trip Planner

Search our weather history database for the weather conditions in past years. The results will help you decide how hot, cold, wet, or windy it might be!

Date:

Astronomy

Sep. 13, 2013 Rise Set
Actual Time 7:08 AM AKDT 8:23 PM AKDT
Civil Twilight 6:18 AM AKDT 9:14 PM AKDT
Nautical Twilight 5:13 AM AKDT 10:18 PM AKDT
Astronomical Twilight 3:49 AM AKDT 11:39 PM AKDT
Moon 6:03 PM AKDT (9/13) No Moon Set
Length of Visible Light 14h 55m
Length of Day
13h 14m
Waxing Gibbous, 63% of the Moon is Illuminated
Sep 13
Waxing Gibbous
Sep 19
Full
Sep 26
Last Quarter
Oct 4
New
Oct 11
First Quarter

Hourly Weather History & Observations

Time (AKDT) Temp. Windchill Dew Point Humidity Pressure Visibility Wind Dir Wind Speed Gust Speed Precip Events Conditions
12:53 AM 46.0 °F 43.9 °F 43.0 °F 89% 29.86 in 10.0 mi NE 4.6 mph - N/A   Scattered Clouds
1:53 AM 46.0 °F - 42.1 °F 86% 29.87 in 10.0 mi Calm Calm - N/A   Scattered Clouds
2:53 AM 43.0 °F - 39.9 °F 89% 29.88 in 10.0 mi Calm Calm - N/A   Partly Cloudy
3:53 AM 43.0 °F - 39.9 °F 89% 29.88 in 10.0 mi Calm Calm - N/A   Scattered Clouds
4:53 AM 42.1 °F - 39.9 °F 92% 29.89 in 10.0 mi Calm Calm - N/A   Scattered Clouds
5:53 AM 43.0 °F - 39.9 °F 89% 29.89 in 10.0 mi Calm Calm - N/A   Scattered Clouds
6:53 AM 42.1 °F 40.2 °F 39.0 °F 89% 29.90 in 10.0 mi North 3.5 mph - N/A   Scattered Clouds
7:53 AM 41.0 °F - 39.0 °F 93% 29.91 in 10.0 mi Calm Calm - N/A   Scattered Clouds
8:53 AM 43.0 °F - 39.9 °F 89% 29.92 in 10.0 mi Calm Calm - N/A   Mostly Cloudy
9:53 AM 45.0 °F 43.5 °F 39.9 °F 82% 29.92 in 10.0 mi NNE 3.5 mph - N/A   Mostly Cloudy
10:53 AM 45.0 °F - 39.9 °F 82% 29.93 in 10.0 mi Calm Calm - 0.00 in Rain Light Rain
11:53 AM 46.9 °F - 42.1 °F 83% 29.92 in 10.0 mi NNE 4.6 mph - 0.00 in   Overcast
12:53 PM 48.9 °F - 42.1 °F 77% 29.92 in 10.0 mi Calm Calm - 0.00 in Rain Light Rain
1:53 PM 50.0 °F - 44.1 °F 80% 29.92 in 10.0 mi NNW 3.5 mph - 0.00 in Rain Light Rain
2:53 PM 50.0 °F - 45.0 °F 83% 29.93 in 10.0 mi Calm Calm - 0.00 in Rain Light Rain
3:53 PM 50.0 °F - 46.0 °F 86% 29.93 in 10.0 mi Calm Calm - 0.01 in Rain Light Rain
4:53 PM 51.1 °F - 46.0 °F 83% 29.92 in 10.0 mi NE 4.6 mph - 0.00 in Rain Light Rain
5:53 PM 52.0 °F - 46.9 °F 83% 29.92 in 10.0 mi North 3.5 mph - 0.01 in Rain Light Rain
6:53 PM 52.0 °F - 46.9 °F 83% 29.92 in 10.0 mi Calm Calm - 0.00 in   Overcast
7:53 PM 51.1 °F - 46.9 °F 86% 29.93 in 10.0 mi WSW 3.5 mph - 0.00 in Rain Light Rain
8:53 PM 50.0 °F - 46.9 °F 89% 29.94 in 10.0 mi Calm Calm - 0.00 in Rain Light Rain
9:53 PM 48.9 °F - 46.0 °F 90% 29.94 in 10.0 mi Calm Calm - 0.00 in Rain Light Rain
10:53 PM 48.9 °F - 46.0 °F 90% 29.95 in 10.0 mi Calm Calm - 0.00 in Rain Light Rain
11:53 PM 48.9 °F - 46.0 °F 90% 29.95 in 8.0 mi Calm Calm - 0.00 in Rain Light Rain